Regional Weather Roundup
Issued by NWS Cleveland, OH

Home | Current Version | Previous Version | Graphics & Text | Print | Product List | Glossary On
Versions: 1 2 3 4 5 6 7 8 9 10 11 12 13 14 15 16 17 18 19 20 21 22 23 24 25 26 27 28 29 30 31 32 33 34 35 36 37 38 39 40 41 42 43 44 45 46 47 48 49 50
000
ASUS41 KCLE 051810
RWRCLE
OHIO REGIONAL WEATHER ROUNDUP
NATIONAL WEATHER SERVICE WILMINGTON, OH
100 PM EST MON DEC 05 2016

NOTE: "FAIR" INDICATES FEW OR NO CLOUDS BELOW 12,000 FEET WITH NO
SIGNIFICANT WEATHER AND/OR OBSTRUCTIONS TO VISIBILITY.

OHZ001>008-015>018-024>027-034-035-043-044-051900-
   NORTHWEST OHIO

CITY           SKY/WX    TMP DP  RH WIND       PRES   REMARKS
DEFIANCE       CLOUDY    37  29  72 SW10      30.10S
FINDLAY        CLOUDY    37  30  75 SW12      30.09R
TOLEDO EXPRESS CLOUDY    37  32  82 SW10      30.08S
TOLEDO EXEC    CLOUDY    38  32  79 SW13      30.09S
LIMA           CLOUDY    35  30  82 SW9       30.10R WCI  28
$$

OHZ009>014-019>023-028>033-038-089-051900-
   NORTHEAST OHIO

CITY           SKY/WX    TMP DP  RH WIND       PRES   REMARKS
CLE-HOPKINS    CLOUDY    40  29  64 W12       30.09F
CLE-LAKEFRONT  CLOUDY    40  32  73 SW13      30.06F
CUY CO. ARPT   CLOUDY    41  34  75 W12       30.06F
LORAIN-ELYRIA  CLOUDY    37  30  75 W10       30.08F
ASHTABULA      CLOUDY    40  34  79 W9        30.04F
AKRON-CANTON   CLOUDY    38  29  70 W8        30.07F
WOOSTER        CLOUDY    37  29  72 W9        30.09R
MANSFIELD      CLOUDY    36  29  75 SW9       30.08R
YOUNGSTOWN     CLOUDY    38  30  73 SW9       30.05F
$$

OHZ042-051>053-060>062-070>072-077>081-051900-
  SOUTHWEST OHIO

CITY           SKY/WX    TMP DP  RH WIND       PRES   REMARKS
CINC-COVINGTON PTSUNNY   42  33  70 E5        30.08F
CINC-LUNKEN    FAIR      44  34  67 N3        30.11F
HAMILTON       FAIR      43  31  62 E5        30.10F
DAYTON         CLOUDY    38  30  73 S5        30.09F
WRIGHT-PAT AFB PTSUNNY   40  32  72 SW5       30.09F
DAYTON GENERAL FAIR      40  31  70 CALM      30.07F
WILMINGTON     FAIR      41  33  73 CALM      30.09F
$$

OHZ036-037-039>041-045>050-054>059-063>069-073>076-082>088-051900-
  CENTRAL AND SOUTHEAST OHIO

CITY           SKY/WX    TMP DP  RH WIND       PRES   REMARKS
COLUMBUS       CLOUDY    39  32  76 S3        30.10F
OSU AIRPORT    CLOUDY    39  31  72 SW5       30.09F
BOLTON FIELD   NOT AVBL
RICKENBACK AFB CLOUDY    38  31  73 CALM      30.09F
NEWARK         CLOUDY    39  30  70 VRB5      30.09F
MARION         CLOUDY    38  30  73 SW9       30.10S
LANCASTER      CLOUDY    41  31  67 NW5       30.09F
ZANESVILLE     PTSUNNY   41  29  62 CALM      30.10F
NEW PHILLY     CLOUDY    39  30  70 SW6       30.11R
$$




USA.gov is the U.S. government's official web portal to all federal, state and local government web resources and services.